Hourly Data Report for August 03, 2017

PITT MEADOWS CS
BRITISH COLUMBIA

49°12'29.964" N
122°41'24.076" W
5.00 m
1106178
71775
WMM

Download Data

Hourly Data (August 2017)
Hourly Data Report for August 3, 2017
TIME
LST
Temp Definition
°C
Dew Point Definition
°C
Rel Hum Definition
%
Precip. Amount Definition
mm

Wind Dir Definition
10's deg

Wind Spd Definition
km/h
Visibility Definition
km
Stn Press Definition
kPa
Hmdx Definition


Wind Chill Definition


Weather Definition


00:00 17.0 15.2 89 0.0 15 2   101.47     LegendNANA
01:00 17.0 14.9 88 0.0   0   101.48     LegendNANA
02:00 16.0 14.6 92 0.0   0   101.49     LegendNANA
03:00 15.4 13.7 90 0.0   0   101.51     LegendNANA
04:00 15.0 13.9 93 0.0 0 1   101.54     LegendNANA
05:00 14.4 13.0 91 0.0 12 2   101.55     LegendNANA
06:00 15.7 14.3 92 0.0   0   101.58     LegendNANA
07:00 17.6 15.2 86 0.0 0 1   101.57     LegendNANA
08:00 19.4 15.6 79 0.0 5 2   101.59     LegendNANA
09:00 22.2 14.8 63 0.0 0 1   101.55 26   LegendNANA
10:00 23.8 13.6 53 0.0 20 2   101.52 27   LegendNANA
11:00 26.5 14.6 48 0.0 19 2   101.49 30   LegendNANA
12:00 28.5 11.3 35 0.0 14 2   101.44 30   LegendNANA
13:00 30.0 11.6 32 0.0 30 3   101.38 32   LegendNANA
14:00 30.5 14.4 37 0.0 22 4   101.33 34   LegendNANA
15:00 30.3 15.1 40 0.0 20 6   101.26 34   LegendNANA
16:00 30.1 16.6 44 0.0 19 4   101.19 35   LegendNANA
17:00 28.9 16.4 47 0.0 19 6   101.13 34   LegendNANA
18:00 27.4 15.9 50 0.0 19 7   101.08 32   LegendNANA
19:00 26.0 15.0 51 0.0 17 6   101.05 30   LegendNANA
20:00 22.7 15.3 63 0.0 11 3   101.05 27   LegendNANA
21:00 20.8 15.8 73 0.0 9 4   101.07 25   LegendNANA
22:00 19.3 15.5 79 0.0   0   101.08     LegendNANA
23:00 18.2 15.1 82 0.0 14 5   101.10     LegendNANA

Notes on Data Quality.

Legend

  • E = Estimated
  • M = Missing
  • NA = Not Available*
  • [empty] = Indicates an unobserved value
Date modified: